This demonstration page uses our WeatherBlox Daily Observations layout. Learn more.

Left ArrowRight Arrow

Hourly Observations for May 14, 2016

Temp ( °F °C ) Dew Point ( °F °C ) Humidity (%) Winds ( mph kmh ) Pressure ( in mb ) Visibility ( mi km ) Precip ( " mm )
12:53 am 00:53 Clear 54 12.2 52 11.1 93 93 SW 5 7 29.90 1013 10 16 N/A
1:53 am 01:53 Mostly Clear 55 12.8 52 11.1 90 90 N N/A 29.86 1011 10 16 N/A
2:53 am 02:53 Mostly Cloudy with Light Rain 55 12.8 52 11.1 90 90 N N/A 29.83 1010 10 16 N/A
3:53 am 03:53 Cloudy with Light Rain 56 13.3 52 11.1 87 87 SSE 5 7 29.79 1009 10 16 0.02 0.51
4:53 am 04:53 Cloudy with Light Rain 57 13.9 52 11.1 83 83 N N/A 29.76 1008 10 16 N/A
5:53 am 05:53 Cloudy with Light Rain 57 13.9 52 11.1 83 83 WSW 10 17 29.76 1008 9 14 0.02 0.51
6:21 am 06:21 Cloudy with Heavy Rain 55 12.8 53 11.7 93 93 WSW 8 13 29.77 1008 3 4 0.08 2.03
6:30 am 06:30 Cloudy with Light Rain 55 12.8 53 11.7 93 93 WSW 9 15 29.77 1008 4 6 0.10 2.54
6:36 am 06:36 Cloudy with Rain 55 12.8 53 11.7 93 93 W 15 24 29.80 1009 3 5 0.12 3.05
6:53 am 06:53 Cloudy with Light Rain 53 11.7 50 10 89 89 WNW 12 19 29.80 1009 6 10 0.16 4.06
7:31 am 07:31 Cloudy 51 10.6 47 8.3 86 86 NW 16 26 29.88 1012 10 16 0.01 0.25
7:53 am 07:53 Cloudy 50 10 47 8.3 89 89 WNW 8 13 29.86 1011 10 16 0.01 0.25
8:43 am 08:43 Cloudy with Light Rain 48 8.9 45 7.2 89 89 NW 15 24 29.91 1013 6 10 N/A
8:53 am 08:53 Cloudy 48 8.9 44 6.7 86 86 NW 15 24 29.90 1012 10 16 N/A
9:12 am 09:12 Cloudy 49 9.4 43 6.1 80 80 NW 13 20 29.94 1014 10 16 N/A
9:53 am 09:53 Cloudy 50 10 41 5 71 71 WNW 15 24 29.92 1013 10 16 N/A
10:53 am 10:53 Cloudy 50 10 39 3.9 66 66 W 10 17 29.93 1013 10 16 N/A
11:30 am 11:30 Cloudy 49 9.4 39 3.9 69 69 WNW 15 24 29.97 1015 10 16 N/A
11:53 am 11:53 Cloudy 51 10.6 40 4.4 66 66 WNW 14 22 29.95 1014 10 16 N/A
12:53 pm 12:53 Cloudy 50 10 36 2.2 59 59 WNW 15 24 29.98 1015 10 16 N/A
1:53 pm 13:53 Cloudy with Light Rain 48 8.9 37 2.8 66 66 W 13 20 30.00 1016 10 16 N/A
2:53 pm 14:53 Cloudy 48 8.9 35 1.7 61 61 WNW 16 26 30.01 1016 10 16 N/A
3:53 pm 15:53 Cloudy 48 8.9 36 2.2 63 63 W 10 17 30.03 1017 10 16 N/A
4:53 pm 16:53 Cloudy 49 9.4 35 1.7 59 59 WNW 14 22 30.03 1017 10 16 N/A
5:53 pm 17:53 Cloudy 49 9.4 34 1.1 56 56 W 10 17 30.04 1017 10 16 N/A
6:53 pm 18:53 Cloudy 49 9.4 34 1.1 56 56 W 9 15 30.05 1018 10 16 N/A
7:53 pm 19:53 Cloudy 48 8.9 34 1.1 58 58 W 6 9 30.06 1018 10 16 N/A
8:53 pm 20:53 Cloudy 48 8.9 35 1.7 61 61 W 6 9 30.06 1018 10 16 N/A
9:53 pm 21:53 Cloudy 48 8.9 34 1.1 58 58 WNW 10 17 30.08 1019 10 16 N/A
10:53 pm 22:53 Cloudy 47 8.3 32 undefined 56 56 W 8 13 30.09 1019 10 16 N/A
11:53 pm 23:53 Cloudy 46 7.8 34 1.1 63 63 W 6 9 30.09 1019 10 16 N/A

Powered by AerisWeather